This demonstration page uses our WeatherBlox Daily Observations layout. Learn more.

Left ArrowRight Arrow

39.01783, -85.05884

Hourly Observations for October 3, 2018

Temp ( °F °C ) Dew Point ( °F °C ) Humidity (%) Winds ( mph kmh ) Pressure ( in mb ) Visibility ( mi km ) Precip ( " mm )
12:52 am 00:52 Mostly Clear 71 21.7 69 20.6 94 94 SSW 6 9 30.08 1019 9 14 N/A
1:52 am 01:52 Clear 70 21.1 69 20.6 97 97 SW 3 6 30.08 1019 10 16 N/A
2:52 am 02:52 Partly Cloudy 69 20.6 69 20.6 100 100 WSW 3 6 30.09 1019 10 16 N/A
3:52 am 03:52 Partly Cloudy 67 19.4 67 19.4 100 100 SSW 6 9 30.07 1018 10 16 N/A
4:52 am 04:52 Mostly Clear 69 20.6 69 20.6 100 100 SSW 7 11 30.07 1018 10 16 N/A
5:52 am 05:52 Clear with Mist and Fog 69 20.6 69 20.6 100 100 SSW 6 9 30.07 1018 6 10 N/A
6:52 am 06:52 Mostly Clear with Mist and Fog 69 20.6 69 20.6 100 100 SSW 7 11 30.07 1018 5 8 N/A
7:52 am 07:52 Partly Cloudy with Patchy Fog 69 20.6 68 20 96 96 SSW 6 9 30.07 1018 3 5 N/A
8:09 am 08:09 Partly Cloudy with Patchy Fog 69 20.6 69 20.6 100 100 SSW 6 9 30.06 1018 0 0 N/A
8:24 am 08:24 Mostly Cloudy with Patchy Fog 69 20.6 69 20.6 100 100 SSW 6 9 30.06 1018 0 0 N/A
8:52 am 08:52 Cloudy with Mist and Fog 70 21.1 70 21.1 100 100 SSW 8 13 30.07 1018 0 0 N/A
9:15 am 09:15 Cloudy with Mist and Fog 70 21.1 70 21.1 100 100 SW 8 13 30.06 1018 1 1 N/A
9:40 am 09:40 Mostly Cloudy with Mist and Fog 71 21.7 70 21.1 96 96 SSW 6 9 30.09 1019 2 3 N/A
9:52 am 09:52 Mostly Cloudy with Mist and Fog 71 21.7 70 21.1 96 96 SSW 8 13 30.08 1019 2 3 N/A
10:52 am 10:52 Mostly Cloudy with Mist and Fog 74 23.3 71 21.7 91 91 SW 10 17 30.09 1019 2 3 N/A
10:56 am 10:56 Partly Cloudy with Mist and Fog 73 22.8 70 21.1 90 90 SW 10 17 30.09 1019 6 10 N/A
11:52 am 11:52 Partly Cloudy 77 25 71 21.7 82 82 S 9 15 30.07 1018 9 14 N/A
12:52 pm 12:52 Partly Cloudy 81 27.2 71 21.7 72 72 SSW 12 19 30.05 1018 10 16 N/A
1:52 pm 13:52 Mostly Cloudy 81 27.2 70 21.1 69 69 SSW 10 17 30.02 1017 10 16 N/A
2:52 pm 14:52 Partly Cloudy 84 28.9 70 21.1 63 63 SSW 10 17 30.00 1016 10 16 N/A
3:52 pm 15:52 Partly Cloudy 84 28.9 69 20.6 61 61 S 13 20 29.98 1015 10 16 N/A
4:52 pm 16:52 Mostly Sunny 82 27.8 68 20 63 63 S 9 15 29.96 1015 10 16 N/A
5:52 pm 17:52 Mostly Sunny 83 28.3 68 20 61 61 SSW 12 19 29.95 1014 10 16 N/A
6:52 pm 18:52 Mostly Sunny 79 26.1 69 20.6 72 72 S 9 15 29.95 1014 10 16 N/A
7:52 pm 19:52 Clear 76 24.4 69 20.6 79 79 S 7 11 29.95 1014 10 16 N/A
8:52 pm 20:52 Clear 75 23.9 69 20.6 82 82 S 8 13 29.96 1015 10 16 N/A
9:52 pm 21:52 Clear 75 23.9 69 20.6 82 82 S 9 15 29.97 1015 10 16 N/A
10:52 pm 22:52 Clear 75 23.9 68 20 79 79 S 9 15 29.97 1015 10 16 N/A
11:52 pm 23:52 Clear 73 22.8 68 20 84 84 S 9 15 29.96 1015 10 16 N/A

Powered by AerisWeather